Home > Weather > Kuala Lumpur > Past weeks

Flag for Malaysia Weather for the Past 2 Weeks in Kuala Lumpur, Malaysia

Now
93 °F

Broken clouds.


Feels Like: 110 °F
Forecast: 79 / 91 °F
Wind: 8 mph from Southwest

Location: Sultan Abdul Aziz Shah-Subang

Current Time: Apr 29, 2016 at 3:15:34 PM

Latest Report: Apr 29, 2016 at 2:00 PM


Visibility: 5 mi

Pressure: 29.77 "Hg

Humidity: 63%

Dew Point: 79 °F

Location of Kuala LumpurLocation

Historic Weather in Kuala Lumpur — Graph

°F

Kuala Lumpur Temperature Yesterday

Maximum temperature yesterday: 93 °F (at 1:00 PM)
Minimum temperature yesterday: 81 °F (at 4:00 AM)
Average temperature yesterday: 83 °F

High & Low Weather Summary for the Past Weeks

 TemperatureHumidityPressure
High99 °F (Apr 18, 4:00 PM)100% (Apr 20, 8:00 AM)29.95 "Hg (Apr 20, 8:00 AM)
Low77 °F (Apr 26, 5:00 PM)42% (Apr 19, 3:00 PM)29.71 "Hg (Apr 16, 4:00 PM)
Average85 °F78%29.80 "Hg
* Reported Apr 14 1:00 PM — Apr 29 1:00 PM, Kuala Lumpur, Weather by CustomWeather, © 2016

Note: Actual official high and low records may vary slightly from our data, if they occured in-between our weather recording intervals... More about our weather records

Advertising

Kuala Lumpur Weather History for the Previous 24 Hours

Scroll right to see more
 ConditionsComfort  
Time TempWeatherWind HumidityBarometerVisibility
1:00 PM
Fri, Apr 29
93 °FBroken clouds.3 mph59%29.80 "Hg5 mi
12:00 PM91 °FBroken clouds.2 mph63%29.83 "Hg6 mi
11:00 AM90 °FBroken clouds.2 mph71%29.86 "Hg6 mi
10:00 AM86 °FBroken clouds.1 mph79%29.86 "Hg4 mi
9:00 AM82 °FBroken clouds.No wind89%29.86 "Hg2 mi
8:00 AM81 °FPartly cloudy.No wind94%29.83 "Hg1 mi
7:00 AM79 °FPartly cloudy.No wind94%29.80 "Hg1 mi
6:00 AM79 °FPartly cloudy.No wind94%29.77 "Hg1 mi
5:00 AM79 °FPartly cloudy.1 mph94%29.77 "Hg1 mi
4:00 AM79 °FPartly cloudy.No wind94%29.77 "Hg1 mi
3:00 AM81 °FPartly cloudy.No wind94%29.77 "Hg1 mi
2:00 AM81 °FPartly cloudy.No wind94%29.80 "Hg1 mi
1:00 AM81 °FPartly cloudy.1 mph94%29.83 "Hg1 mi
12:00 AM81 °FPartly cloudy.No wind94%29.83 "Hg2 mi
11:00 PM
Thu, Apr 28
81 °FPartly cloudy.No wind89%29.80 "Hg2 mi
10:00 PM81 °FPartly cloudy.1 mph89%29.80 "Hg2 mi
9:00 PM81 °FPartly cloudy.No wind94%29.77 "Hg3 mi
8:00 PM81 °FBroken clouds.1 mph94%29.74 "Hg3 mi
7:00 PM81 °FBroken clouds.No wind89%29.74 "Hg5 mi
6:00 PM81 °FMore clouds than sun.2 mph84%29.74 "Hg4 mi
5:00 PM81 °FThunderstorms. More clouds than sun.2 mph89%29.74 "Hg2 mi
4:00 PM81 °FThunderstorms. More clouds than sun.6 mph84%29.74 "Hg2 mi
3:00 PM90 °FThunderstorms. Broken clouds.5 mph75%29.74 "Hg2 mi
Weather by CustomWeather, © 2016

See weather overviewHow to use our weather pages